Dewpoint
57 56 56 56 54 53 52 49 51 52 52 53 54 53 51 51 51 52 54 57 57 55 56 56 56 55 55 55 54 53 53 53 52 52 52 53 53 53 53 52 53 53 53
57 55 54 54 53 52 50 51 52 52 52 54 52 51 50 50 50 50 51 53 56 56 57 57 56 55 54 53 53 52 51 52 52 53 52 52 51 51 51 52 52 51 52
59 56 55 54 53 52 52 53 53 52 50 48 49 51 50 48 48 48 48 48 50 53 54 55 56 55 54 54 53 51 52 51 51 51 50 51 51 51 51 51 52 51 53
58 57 55 54 53 53 52 53 53 50 49 46 45 46 48 48 47 46 46 46 46 47 51 53 54 54 53 53 52 51 51 51 50 50 51 50 49 49 50 50 51 52 53
58 57 55 54 52 51 51 53 51 49 47 44 43 43 43 43 44 44 44 44 45 45 46 50 50 51 52 51 51 51 51 51 51 50 50 50 49 49 50 51 51 50 51
57 56 54 53 52 49 49 51 49 48 46 43 41 41 41 42 42 41 43 43 43 44 43 42 43 46 49 51 51 50 51 50 50 49 48 49 49 49 49 49 50 50 50
54 54 52 52 50 49 49 51 48 45 44 42 41 40 41 40 39 40 40 42 42 42 41 40 40 39 40 46 49 49 49 49 49 47 46 46 48 47 47 48 49 49 50
52 51 50 49 49 48 49 49 46 44 42 42 39 38 36 38 39 39 40 40 39 40 40 39 38 38 38 39 41 43 44 45 45 44 44 44 45 43 43 44 44 45 48
53 51 49 50 50 49 49 49 46 43 42 41 39 39 36 35 36 39 39 39 38 38 38 38 38 37 36 36 38 40 42 43 43 43 43 45 44 44 44 43 42 44 43
53 51 50 50 48 47 49 48 46 44 42 40 40 41 41 38 35 35 38 38 38 37 37 37 36 34 35 35 38 39 40 42 41 42 43 42 43 43 44 42 42 43 42
54 51 50 51 49 47 49 49 46 44 42 41 40 42 38 37 37 35 35 36 37 37 38 37 37 35 33 34 34 37 38 40 39 39 40 40 43 43 41 41 40 43 43
53 53 52 50 50 47 49 49 48 44 42 42 41 43 38 36 36 35 35 36 36 37 38 37 36 34 33 33 35 37 37 37 38 37 38 38 39 39 41 40 40 41 42
51 52 53 52 51 49 49 49 48 45 43 42 42 42 42 39 37 37 36 35 34 34 35 36 34 33 32 33 33 35 35 35 35 35 35 36 36 36 37 37 38 38 39
51 51 51 51 51 49 50 50 49 46 44 43 44 44 44 42 40 37 36 34 30 29 30 32 34 33 32 32 33 34 32 33 34 34 33 34 34 33 34 34 34 35 35
51 51 51 50 49 49 50 50 48 46 45 44 44 44 44 43 40 38 36 33 31 27 27 30 31 33 32 33 33 31 30 33 32 32 32 32 31 32 32 32 32 32 33
51 50 50 49 48 48 48 49 48 46 45 46 45 44 42 40 39 38 36 32 31 29 28 31 31 32 33 32 32 30 30 31 31 31 30 30 29 30 30 30 30 30 31
50 49 49 48 48 47 47 48 47 46 46 45 44 42 39 40 39 38 37 35 35 31 28 31 30 30 31 32 31 30 30 28 29 30 28 28 27 27 28 28 28 28 28
48 48 48 47 47 46 47 47 46 46 45 43 41 39 38 39 40 39 37 36 36 33 29 30 31 30 30 30 29 28 27 26 27 29 28 27 26 26 26 26 26 27 26
46 46 46 46 44 44 42 42 43 41 41 41 41 39 39 39 39 40 39 38 36 31 30 30 30 30 30 31 30 29 27 26 25 29 27 26 26 26 25 25 25 25 25
42 40 39 37 38 40 40 39 40 39 38 36 37 38 36 37 39 39 37 35 33 31 30 31 31 29 29 28 27 27 24 24 25 24 26 26 26 26 25 24 23 23 22
42 38 38 39 39 39 39 38 38 37 36 35 35 36 37 39 39 37 34 34 33 32 31 31 29 25 20 27 25 24 24 23 21 23 23 24 24 24 24 22 21 21 20
39 40 39 39 39 39 38 37 37 36 36 34 34 35 36 37 37 36 35 33 32 31 30 29 28 27 18 23 22 28 24 20 19 23 20 19 25 24 23 21 21 19 18
38 38 38 38 38 37 37 37 36 36 34 33 32 32 31 31 33 33 34 34 33 33 30 28 27 26 26 26 27 26 24 24 22 20 22 19 22 21 23 25 22 20 18
34 34 34 35 35 36 36 36 35 35 34 33 32 31 29 28 29 29 28 27 28 30 30 29 28 27 27 27 28 27 26 25 24 23 21 20 23 24 26 23 24 22 19
32 33 33 34 34 35 35 35 35 33 32 31 29 29 28 28 30 30 26 25 24 25 29 29 28 28 28 27 22 24 23 19 21 23 20 21 22 20 22 21 23 24 22
32 32 32 33 34 33 35 35 34 33 31 29 27 28 29 28 29 28 24 23 21 21 23 23 24 25 25 26 25 23 21 20 23 21 18 17 18 16 12 23 22 22 23
Lifted_Index
-2 -2 -2 -2 -1 2 5 6 5 5 4 3 2 2 2 3 3 4 5 5 5 5 5 5 6 6 7 7 8 9 9 9 10 10 10 10 10 10 11 10 10 10 10
-2 -2 -2 -2 -0 2 5 6 5 4 4 3 3 2 2 3 3 4 5 5 6 5 5 5 6 6 7 8 8 9 9 10 10 10 10 10 10 11 11 11 10 10 10
-2 -2 -2 -2 -0 3 5 6 5 4 4 3 3 3 3 3 4 4 5 5 6 7 6 6 6 6 7 7 8 9 9 10 10 10 11 11 11 11 11 11 11 11 10
-3 -3 -3 -2 -0 2 4 5 5 4 4 4 4 3 3 4 5 5 6 6 7 8 8 8 7 7 7 7 8 9 10 10 11 11 11 11 11 12 11 11 11 11 11
-3 -3 -3 -2 -1 1 4 5 5 4 4 4 4 4 4 5 7 8 8 9 10 10 10 10 9 8 8 8 8 9 10 10 11 11 11 11 12 12 12 12 12 12 11
-3 -3 -3 -2 -1 0 3 4 4 4 4 5 5 5 6 7 8 9 10 11 11 12 12 11 11 10 10 9 9 10 10 11 12 12 12 12 12 12 12 12 12 12 12
-3 -3 -3 -2 -1 1 3 4 4 4 5 5 6 7 8 9 10 10 11 11 12 12 12 12 12 12 12 12 11 11 12 12 12 13 13 13 13 13 13 13 13 12 12
-3 -3 -3 -2 -1 1 2 3 3 3 4 5 7 8 9 10 10 11 11 12 12 12 12 13 13 13 13 13 14 14 13 13 13 14 14 14 14 14 14 14 13 13 13
-4 -3 -3 -2 -0 1 2 3 3 3 3 5 8 9 9 9 8 10 11 12 12 12 12 13 13 14 15 15 15 15 15 15 14 14 14 14 14 14 14 14 14 14 14
-3 -3 -3 -2 -1 1 2 3 4 4 4 6 8 9 9 8 7 7 9 11 11 12 13 13 13 14 15 16 16 16 16 16 15 15 15 15 15 14 14 15 15 14 14
-3 -3 -3 -2 -1 1 3 4 5 5 5 7 8 9 9 8 7 6 7 9 10 12 13 14 14 14 15 16 17 17 17 17 16 16 16 15 15 15 15 15 15 15 15
-2 -2 -2 -1 0 2 3 4 5 5 6 7 9 9 8 7 7 7 7 7 9 11 13 14 14 14 15 16 17 18 18 18 17 17 17 16 16 16 16 16 16 16 15
-2 -2 -1 -1 1 2 4 5 5 5 6 7 8 9 8 7 7 7 7 7 9 11 13 14 14 14 15 16 17 18 18 18 18 18 17 17 17 17 17 17 17 17 16
-1 -1 -1 -1 1 2 4 5 5 5 6 7 8 8 8 7 8 8 8 8 9 10 12 13 13 14 14 16 17 18 18 18 18 18 18 18 18 18 18 18 18 18 17
-0 -0 -1 -1 0 2 4 5 5 5 6 6 7 7 7 7 8 8 8 8 9 9 10 12 13 14 14 16 17 18 18 18 18 18 18 18 18 19 19 19 19 18 18
0 1 0 0 1 2 4 5 5 5 6 6 7 7 7 7 8 8 8 8 9 9 10 11 13 14 14 15 17 17 18 18 18 19 19 19 19 19 19 19 19 19 18
1 2 2 1 1 2 4 5 6 6 6 7 7 7 7 7 8 8 8 8 9 9 10 11 13 14 14 15 16 17 17 18 18 18 19 19 19 20 20 20 20 19 19
2 2 3 3 2 3 4 6 6 6 7 7 7 7 7 7 8 8 8 9 9 10 10 11 12 13 14 15 16 16 17 17 17 18 19 20 20 20 20 20 20 20 19
2 2 3 3 3 3 4 6 7 7 7 8 7 7 7 8 8 8 8 9 9 10 10 10 10 12 14 15 16 16 16 16 17 18 19 19 19 20 20 20 20 20 20
1 1 2 2 2 3 5 6 7 7 8 8 8 8 8 9 9 9 9 9 9 9 9 9 9 11 13 14 15 14 14 15 16 18 18 19 19 19 19 20 20 21 21
1 2 2 2 2 4 5 7 7 8 8 9 9 9 9 10 10 10 9 8 8 8 8 8 9 10 12 13 13 13 13 14 15 16 17 18 18 19 19 19 20 20 20
2 2 2 2 3 4 6 7 8 9 10 10 10 10 10 10 10 10 9 8 8 8 8 8 9 11 12 12 13 13 13 13 14 15 16 16 17 18 18 19 19 20 20
4 3 3 3 4 5 7 8 9 10 11 11 11 10 10 10 10 9 9 9 9 9 9 10 11 12 12 13 13 13 14 13 14 15 15 15 16 16 17 18 19 19 19
5 5 5 5 6 7 9 10 10 11 10 10 10 10 10 10 10 10 10 10 10 11 11 12 12 13 13 14 14 14 14 13 13 14 14 14 15 15 16 18 18 19 19
7 7 7 7 8 9 10 11 11 11 10 10 11 11 11 11 10 11 11 11 11 12 13 13 14 14 15 15 15 15 14 13 12 13 14 14 14 15 16 17 18 18 19
8 8 8 9 10 10 11 11 11 10 9 10 11 12 11 11 11 11 12 12 12 12 13 13 14 15 15 15 15 15 13 12 11 12 13 14 14 15 16 17 18 18 18